FW5225 Weather Reports


time (UTC)temp
C
wind
direction
speed
KPH
gust
KPH
rain 1hr
cm
rain 24hr
cm
rain mn
cm
humidity
%
barometer
mb
20260906152513 31 138 1.6 4.8 0.00 0.00 0.00 38 1008.6
20260906152011 31 140 0.0 3.2 0.00 0.00 0.00 39 1008.6
20260906151508 31 175 0.0 3.2 0.00 0.00 0.00 39 1008.5
20260906151006 31 130 0.0 3.2 0.00 0.00 0.00 39 1008.5
20260906150506 30 159 0.0 6.4 0.00 0.00 0.00 40 1008.5
20260906150005 30 153 0.0 6.4 0.00 0.00 0.00 40 1008.5
20260906145505 30 130 1.6 4.8 0.00 0.00 0.00 40 1008.4
20260906145002 29 126 0.0 3.2 0.00 0.00 0.00 42 1008.3
20260906144500 29 119 0.0 3.2 0.00 0.00 0.00 42 1008.3
20260906144100 28 125 0.0 3.2 0.00 0.00 0.00 45 1008.3
20260906143559 28 228 0.0 1.6 0.00 0.00 0.00 47 1008.3
20260906143128 28 228 0.0 1.6 0.00 0.00 0.00 47 1008.2
20260906142600 28 228 0.0 3.2 0.00 0.00 0.00 46 1008.2
20260906142057 28 228 0.0 3.2 0.00 0.00 0.00 48 1008.2
20260906141555 27 157 0.0 3.2 0.00 0.00 0.00 49 1008.0
20260906141056 27 157 0.0 3.2 0.00 0.00 0.00 52 1008.0
20260906140555 27 157 0.0 0.0 0.00 0.00 0.00 50 1007.9
20260906140054 27 157 0.0 3.2 0.00 0.00 0.00 47 1008.0
20260906135553 27 157 0.0 3.2 0.00 0.00 0.00 47 1007.9
20260906135054 26 188 0.0 0.0 0.00 0.00 0.00 47 1007.9
20260906134558 26 188 0.0 3.2 0.00 0.00 0.00 48 1007.9
20260906134049 26 271 0.0 0.0 0.00 0.00 0.00 49 1007.9
20260906133551 26 271 0.0 0.0 0.00 0.00 0.00 45 1007.8
20260906133049 26 271 0.0 0.0 0.00 0.00 0.00 44 1007.8
20260906132547 26 271 0.0 0.0 0.00 0.00 0.00 44 1007.8
20260906132046 26 41 0.0 6.4 0.00 0.00 0.00 47 1007.7
20260906131549 26 41 3.2 6.4 0.00 0.00 0.00 44 1007.6
20260906131045 26 24 0.0 4.8 0.00 0.00 0.00 47 1007.6
20260906130545 26 57 0.0 6.4 0.00 0.00 0.00 46 1007.6
20260906130051 26 71 1.6 6.4 0.00 0.00 0.00 45 1007.6
20260906125545 26 61 1.6 4.8 0.00 0.00 0.00 44 1007.5
20260906125045 27 38 0.0 4.8 0.00 0.00 0.00 45 1007.5
20260906124547 27 65 1.6 4.8 0.00 0.00 0.00 43 1007.4
20260906124045 27 314 0.0 0.0 0.00 0.00 0.00 45 1007.4
20260906123545 27 295 0.0 0.0 0.00 0.00 0.00 46 1007.3
20260906123112 27 295 0.0 0.0 0.00 0.00 0.00 45 1007.3
20260906122543 26 295 0.0 3.2 0.00 0.00 0.00 45 1007.3
20260906122044 26 295 0.0 6.4 0.00 0.00 0.00 45 1007.2
20260906121544 26 295 1.6 6.4 0.00 0.00 0.00 47 1007.3
20260906121043 26 122 0.0 3.2 0.00 0.00 0.00 44 1007.2
20260906120543 26 298 0.0 0.0 0.00 0.00 0.00 45 1007.4
20260906120043 26 298 0.0 0.0 0.00 0.00 0.00 47 1007.3
20260906115542 26 298 0.0 0.0 0.00 0.00 0.00 45 1007.3
20260906115042 26 298 0.0 0.0 0.00 0.00 0.00 47 1007.3
20260906114541 27 298 0.0 0.0 0.00 0.00 0.00 45 1007.3
20260906114043 27 298 0.0 0.0 0.00 0.00 0.00 48 1007.3
20260906113540 27 298 0.0 1.6 0.00 0.00 0.00 46 1007.3
20260906113042 27 298 0.0 1.6 0.00 0.00 0.00 46 1007.2
20260906112538 27 298 0.0 0.0 0.00 0.00 0.00 43 1007.2
20260906112038 27 298 0.0 0.0 0.00 0.00 0.00 44 1007.2
20260906111538 27 298 0.0 0.0 0.00 0.00 0.00 44 1007.2
20260906111037 27 298 0.0 0.0 0.00 0.00 0.00 45 1007.2
20260906110536 27 298 0.0 3.2 0.00 0.00 0.00 45 1007.2
20260906110036 27 298 0.0 3.2 0.00 0.00 0.00 42 1007.2
20260906105535 27 298 0.0 3.2 0.00 0.00 0.00 42 1007.3
20260906105034 27 298 0.0 3.2 0.00 0.00 0.00 44 1007.3
20260906104534 27 298 0.0 3.2 0.00 0.00 0.00 42 1007.3
20260906104037 27 298 0.0 0.0 0.00 0.00 0.00 44 1007.3
20260906103535 27 298 0.0 0.0 0.00 0.00 0.00 41 1007.3
20260906103033 27 298 0.0 0.0 0.00 0.00 0.00 43 1007.3
20260906102534 27 298 0.0 0.0 0.00 0.00 0.00 41 1007.3
20260906102033 27 298 0.0 3.2 0.00 0.00 0.00 41 1007.2
20260906101533 27 298 0.0 3.2 0.00 0.00 0.00 42 1007.1
20260906101032 27 298 0.0 3.2 0.00 0.00 0.00 42 1007.1
20260906100534 27 298 0.0 3.2 0.00 0.00 0.00 43 1007.1
20260906100032 28 298 0.0 0.0 0.00 0.00 0.00 42 1007.1
20260906095532 28 298 0.0 1.6 0.00 0.00 0.00 45 1007.2
20260906095034 28 298 0.0 1.6 0.00 0.00 0.00 44 1007.1
20260906094530 28 298 0.0 3.2 0.00 0.00 0.00 44 1007.1
20260906094030 28 298 0.0 3.2 0.00 0.00 0.00 43 1007.0
20260906093530 28 298 0.0 3.2 0.00 0.00 0.00 40 1007.0
20260906093029 28 298 0.0 3.2 0.00 0.00 0.00 40 1007.0
20260906092527 28 298 0.0 0.0 0.00 0.00 0.00 42 1007.0
20260906092026 28 298 0.0 0.0 0.00 0.00 0.00 42 1007.0
20260906091532 28 298 0.0 3.2 0.00 0.00 0.00 41 1007.1
20260906091025 28 298 0.0 3.2 0.00 0.00 0.00 40 1007.1
20260906090524 28 298 0.0 3.2 0.00 0.00 0.00 42 1007.1
20260906090024 28 298 0.0 3.2 0.00 0.00 0.00 42 1007.1
20260906085527 29 298 0.0 3.2 0.00 0.00 0.00 41 1007.1
20260906085023 29 159 0.0 3.2 0.00 0.00 0.00 39 1007.1
20260906084523 29 326 0.0 3.2 0.00 0.00 0.00 38 1007.2
20260906084026 29 326 0.0 3.2 0.00 0.00 0.00 38 1007.2
20260906083524 29 326 0.0 1.6 0.00 0.00 0.00 39 1007.3
20260906083027 29 315 0.0 0.0 0.00 0.00 0.00 39 1007.2
20260906082522 29 315 0.0 0.0 0.00 0.00 0.00 41 1007.2
20260906082022 29 315 0.0 0.0 0.00 0.00 0.00 37 1007.2
20260906081521 29 315 0.0 3.2 0.00 0.00 0.00 37 1007.2
20260906081021 29 310 0.0 3.2 0.00 0.00 0.00 37 1007.3
20260906080522 29 62 0.0 0.0 0.00 0.00 0.00 40 1007.3
20260906080028 29 62 0.0 3.2 0.00 0.00 0.00 42 1007.4
20260906075519 29 62 0.0 3.2 0.00 0.00 0.00 37 1007.5
20260906075019 30 62 0.0 0.0 0.00 0.00 0.00 37 1007.5
20260906074519 30 62 0.0 0.0 0.00 0.00 0.00 39 1007.5
20260906074019 30 62 0.0 0.0 0.00 0.00 0.00 37 1007.5
20260906073518 30 62 0.0 0.0 0.00 0.00 0.00 37 1007.6
20260906073018 30 62 0.0 3.2 0.00 0.00 0.00 38 1007.6
20260906072516 30 62 0.0 4.8 0.00 0.00 0.00 37 1007.7
20260906072016 30 57 0.0 6.4 0.00 0.00 0.00 38 1007.7
20260906071514 29 29 0.0 6.4 0.00 0.00 0.00 40 1007.7
20260906071015 29 33 0.0 3.2 0.00 0.00 0.00 41 1007.8
20260906070512 29 5 0.0 0.0 0.00 0.00 0.00 42 1007.8
20260906070011 29 5 0.0 0.0 0.00 0.00 0.00 44 1007.9
20260906065511 29 5 0.0 0.0 0.00 0.00 0.00 45 1007.9
20260906065011 29 5 0.0 0.0 0.00 0.00 0.00 44 1007.9
20260906064511 29 5 0.0 0.0 0.00 0.00 0.00 43 1007.8
20260906064011 29 5 0.0 0.0 0.00 0.00 0.00 44 1007.8
20260906063510 29 5 0.0 0.0 0.00 0.00 0.00 39 1007.8
20260906063010 29 5 0.0 0.0 0.00 0.00 0.00 41 1007.8
20260906062509 29 5 0.0 0.0 0.00 0.00 0.00 42 1007.8
20260906062010 29 111 0.0 0.0 0.00 0.00 0.00 40 1007.8
20260906061510 29 111 0.0 3.2 0.00 0.00 0.00 41 1007.8
20260906061009 30 40 0.0 3.2 0.00 0.00 0.00 43 1007.8
20260906060511 30 257 0.0 0.0 0.00 0.00 0.00 45 1007.7
20260906060008 30 257 0.0 0.0 0.00 0.00 0.00 48 1007.7
20260906055510 30 257 0.0 0.0 0.00 0.00 0.00 44 1007.8
20260906055008 30 257 0.0 0.0 0.00 0.00 0.00 44 1007.8
20260906054509 30 257 0.0 0.0 0.00 0.00 0.00 40 1007.8
20260906054009 30 257 0.0 0.0 0.00 0.00 0.00 44 1007.8
20260906053512 30 257 0.0 0.0 0.00 0.00 0.00 39 1007.9
20260906053008 30 257 0.0 0.0 0.00 0.00 0.00 37 1007.9
20260906052508 30 257 0.0 0.0 0.00 0.00 0.00 36 1007.8
20260906052009 30 257 0.0 0.0 0.00 0.00 0.00 41 1007.8
20260906051507 30 257 0.0 0.0 0.00 0.00 0.00 40 1007.8
20260906051009 30 257 0.0 1.6 0.00 0.00 0.00 42 1007.8
20260906050509 30 257 0.0 3.2 0.00 0.00 0.00 40 1007.9
20260906050008 30 257 0.0 3.2 0.00 0.00 0.00 36 1007.9
20260906045510 30 257 0.0 0.0 0.00 0.00 0.00 36 1007.9
20260906045008 30 257 0.0 0.0 0.00 0.00 0.00 44 1007.9
20260906044507 30 257 0.0 0.0 0.00 0.00 0.00 44 1007.9
20260906044010 30 257 0.0 0.0 0.00 0.00 0.00 39 1007.9
20260906043506 31 257 0.0 3.2 0.00 0.00 0.00 41 1008.0
20260906043006 31 257 0.0 3.2 0.00 0.00 0.00 36 1007.9
20260906042505 31 257 0.0 3.2 0.00 0.00 0.00 43 1008.0
20260906042005 31 257 0.0 0.0 0.00 0.00 0.00 38 1008.0
20260906041506 31 257 0.0 0.0 0.00 0.00 0.00 35 1008.0
20260906041008 31 257 0.0 0.0 0.00 0.00 0.00 36 1008.1
20260906040505 31 257 0.0 0.0 0.00 0.00 0.00 35 1008.0
20260906040008 31 257 0.0 0.0 0.00 0.00 0.00 38 1008.1
20260906035507 31 257 0.0 0.0 0.00 0.00 0.00 39 1008.0
20260906035005 31 257 0.0 0.0 0.00 0.00 0.00 38 1008.0
20260906034505 31 257 0.0 0.0 0.00 0.00 0.00 36 1007.9
20260906034004 32 257 0.0 0.0 0.00 0.00 0.00 36 1007.8
20260906033505 32 257 0.0 0.0 0.00 0.00 0.00 38 1007.7
20260906033012 32 257 0.0 0.0 0.00 0.00 0.00 36 1007.7
20260906032503 32 257 0.0 0.0 0.00 0.00 0.00 37 1007.5
20260906032004 32 257 0.0 0.0 0.00 0.00 0.00 35 1007.5
20260906031503 32 257 0.0 0.0 0.00 0.00 0.00 35 1007.4
20260906031004 32 257 0.0 0.0 0.00 0.00 0.00 35 1007.4
20260906030504 32 257 0.0 3.2 0.00 0.00 0.00 33 1007.3
20260906030004 32 257 0.0 3.2 0.00 0.00 0.00 32 1007.3
20260906025503 32 257 0.0 0.0 0.00 0.00 0.00 33 1007.2
20260906025004 33 257 0.0 0.0 0.00 0.00 0.00 33 1007.2
20260906024502 33 257 0.0 0.0 0.00 0.00 0.00 33 1007.2
20260906024003 33 257 0.0 0.0 0.00 0.00 0.00 31 1007.1
20260906023504 33 257 0.0 3.2 0.00 0.00 0.00 31 1007.2
20260906023002 33 257 0.0 3.2 0.00 0.00 0.00 30 1007.1
20260906022505 33 302 0.0 3.2 0.00 0.00 0.00 30 1007.1
20260906022003 33 302 0.0 3.2 0.00 0.00 0.00 29 1007.1
20260906021502 33 275 0.0 6.4 0.00 0.00 0.00 29 1007.2
20260906021001 33 293 3.2 6.4 0.00 0.00 0.00 29 1007.2
20260906020602 33 304 1.6 8.0 0.00 0.00 0.00 29 1007.2
20260906020107 33 311 3.2 8.0 0.00 0.00 0.00 29 1007.3
20260906015601 33 315 3.2 8.0 0.00 0.00 0.00 29 1007.3
20260906015059 33 304 4.8 12.9 0.00 0.00 0.00 29 1007.3
20260906014602 33 329 3.2 12.9 0.00 0.00 0.00 29 1007.4
20260906014059 33 311 1.6 8.0 0.00 0.00 0.00 29 1007.4
20260906013601 34 331 3.2 8.0 0.00 0.00 0.00 29 1007.4
20260906013109 34 284 3.2 12.9 0.00 0.00 0.00 29 1007.5
20260906012559 34 286 6.4 14.5 0.00 0.00 0.00 29 1007.5
20260906012058 34 297 9.7 14.5 0.00 0.00 0.00 28 1007.6
20260906011606 34 294 6.4 14.5 0.00 0.00 0.00 28 1007.5
20260906011058 34 261 8.0 17.7 0.00 0.00 0.00 28 1007.4
20260906010557 34 310 11.3 17.7 0.00 0.00 0.00 28 1007.5
20260906010059 35 302 8.0 14.5 0.00 0.00 0.00 28 1007.5
20260906005557 35 301 8.0 14.5 0.00 0.00 0.00 28 1007.5
20260906005057 35 265 4.8 14.5 0.00 0.00 0.00 28 1007.4
20260906004604 35 292 6.4 12.9 0.00 0.00 0.00 27 1007.4
20260906004057 35 293 4.8 11.3 0.00 0.00 0.00 27 1007.3
20260906003558 35 321 3.2 14.5 0.00 0.00 0.00 27 1007.4
20260906003103 35 338 4.8 14.5 0.00 0.00 0.00 28 1007.4
20260906002556 35 296 4.8 16.1 0.00 0.00 0.00 27 1007.3
20260906002056 35 322 8.0 16.1 0.00 0.00 0.00 27 1007.4
20260906001556 35 301 3.2 12.9 0.00 0.00 0.00 27 1007.3
20260906001057 35 343 6.4 19.3 0.00 0.00 0.00 26 1007.3
20260906000555 36 319 9.7 19.3 0.00 0.00 0.00 26 1007.3
20260906000058 36 292 3.2 19.3 0.00 0.00 0.00 27 1007.4
20260905235556 36 276 9.7 19.3 0.00 0.00 0.00 26 1007.5
20260905235056 36 270 8.0 16.1 0.00 0.00 0.00 26 1007.4
20260905234556 36 324 9.7 16.1 0.00 0.00 0.00 26 1007.4
20260905234056 36 313 3.2 14.5 0.00 0.00 0.00 26 1007.3
20260905233556 36 281 4.8 16.1 0.00 0.00 0.00 25 1007.3
20260905233054 36 289 9.7 16.1 0.00 0.00 0.00 25 1007.3
20260905232554 36 301 9.7 16.1 0.00 0.00 0.00 25 1007.3
20260905232054 36 290 4.8 16.1 0.00 0.00 0.00 25 1007.3
20260905231554 36 281 6.4 17.7 0.00 0.00 0.00 25 1007.3
20260905231053 37 274 8.0 17.7 0.00 0.00 0.00 24 1007.3
20260905230553 37 304 1.6 11.3 0.00 0.00 0.00 24 1007.4
20260905230054 37 300 4.8 14.5 0.00 0.00 0.00 24 1007.4
20260905225553 37 294 8.0 16.1 0.00 0.00 0.00 23 1007.4
20260905225052 37 257 3.2 16.1 0.00 0.00 0.00 23 1007.4
20260905224555 38 261 9.7 16.1 0.00 0.00 0.00 23 1007.5
20260905224052 38 309 3.2 12.9 0.00 0.00 0.00 23 1007.4
20260905223553 38 281 3.2 12.9 0.00 0.00 0.00 23 1007.4
20260905223051 37 286 1.6 12.9 0.00 0.00 0.00 23 1007.5
20260905222549 37 323 6.4 11.3 0.00 0.00 0.00 23 1007.5
20260905222049 38 250 1.6 9.7 0.00 0.00 0.00 23 1007.6
20260905221549 37 319 1.6 11.3 0.00 0.00 0.00 23 1007.7
20260905221049 37 196 3.2 14.5 0.00 0.00 0.00 23 1007.8
20260905220549 37 183 4.8 14.5 0.00 0.00 0.00 25 1007.9
20260905220049 37 231 4.8 12.9 0.00 0.00 0.00 24 1008.0
20260905215548 36 246 4.8 11.3 0.00 0.00 0.00 25 1008.1
20260905215048 36 255 1.6 12.9 0.00 0.00 0.00 24 1008.1
20260905214548 36 321 6.4 12.9 0.00 0.00 0.00 24 1008.2
20260905214048 36 266 4.8 12.9 0.00 0.00 0.00 25 1008.2
20260905213547 36 329 0.0 6.4 0.00 0.00 0.00 25 1008.3
20260905213048 36 242 0.0 11.3 0.00 0.00 0.00 24 1008.3
20260905212548 36 269 1.6 11.3 0.00 0.00 0.00 24 1008.4
20260905212048 36 274 1.6 11.3 0.00 0.00 0.00 24 1008.5
20260905211552 36 284 1.6 6.4 0.00 0.00 0.00 24 1008.5
20260905211047 36 242 0.0 9.7 0.00 0.00 0.00 24 1008.7
20260905210548 36 297 3.2 12.9 0.00 0.00 0.00 24 1008.7
20260905210050 36 281 6.4 12.9 0.00 0.00 0.00 24 1008.7
20260905205546 36 329 6.4 12.9 0.00 0.00 0.00 24 1008.8
20260905205047 37 263 6.4 12.9 0.00 0.00 0.00 23 1008.8
20260905204548 37 285 0.0 8.0 0.00 0.00 0.00 23 1008.8
20260905204046 37 307 1.6 8.0 0.00 0.00 0.00 23 1008.8
20260905203546 37 232 1.6 8.0 0.00 0.00 0.00 23 1008.9
20260905203046 37 231 1.6 11.3 0.00 0.00 0.00 23 1009.0
20260905202545 37 265 6.4 11.3 0.00 0.00 0.00 23 1009.0
20260905202046 37 174 1.6 12.9 0.00 0.00 0.00 23 1009.1
20260905201546 37 216 1.6 12.9 0.00 0.00 0.00 23 1009.1
20260905201045 37 196 4.8 11.3 0.00 0.00 0.00 23 1009.1
20260905200545 37 289 1.6 12.9 0.00 0.00 0.00 23 1009.1
20260905200044 37 197 3.2 14.5 0.00 0.00 0.00 23 1009.3
20260905195545 37 164 3.2 14.5 0.00 0.00 0.00 22 1009.2
20260905195045 38 233 0.0 8.0 0.00 0.00 0.00 23 1009.4
20260905194545 38 159 1.6 6.4 0.00 0.00 0.00 22 1009.4
20260905194044 38 138 1.6 6.4 0.00 0.00 0.00 23 1009.4
20260905193545 38 184 1.6 8.0 0.00 0.00 0.00 23 1009.5
20260905193043 38 201 3.2 8.0 0.00 0.00 0.00 23 1009.5
20260905192543 38 200 1.6 8.0 0.00 0.00 0.00 23 1009.5
20260905192046 38 188 1.6 8.0 0.00 0.00 0.00 23 1009.6
20260905191542 38 155 0.0 4.8 0.00 0.00 0.00 22 1009.8
20260905191042 38 123 1.6 8.0 0.00 0.00 0.00 22 1009.8
20260905190543 37 144 1.6 8.0 0.00 0.00 0.00 22 1009.9
20260905190040 37 207 0.0 6.4 0.00 0.00 0.00 23 1010.0
20260905185541 37 185 1.6 4.8 0.00 0.00 0.00 23 1010.1
20260905185040 37 338 1.6 6.4 0.00 0.00 0.00 23 1010.2
20260905184554 37 170 1.6 6.4 0.00 0.00 0.00 24 1010.2
20260905184038 37 143 1.6 6.4 0.00 0.00 0.00 23 1010.3
20260905183537 37 227 0.0 11.3 0.00 0.00 0.00 24 1010.3
20260905183045 37 151 1.6 11.3 0.00 0.00 0.00 24 1010.4
20260905182534 36 141 3.2 8.0 0.00 0.00 0.00 24 1010.4
20260905182034 36 221 3.2 8.0 0.00 0.00 0.00 24 1010.5
20260905181540 36 197 3.2 8.0 0.00 0.00 0.00 25 1010.5
20260905181031 36 200 0.0 6.4 0.00 0.00 0.00 27 1010.5
20260905180531 36 203 1.6 8.0 0.00 0.00 0.00 26 1010.5
20260905180035 36 125 1.6 9.7 0.00 0.00 0.00 26 1010.6
20260905175530 36 171 3.2 11.3 0.00 0.00 0.00 25 1010.6
20260905175029 36 119 3.2 11.3 0.00 0.00 0.00 25 1010.6
20260905174529 36 169 3.2 9.7 0.00 0.00 0.00 25 1010.6
20260905174028 36 193 3.2 9.7 0.00 0.00 0.00 25 1010.6
20260905173527 36 124 1.6 8.0 0.00 0.00 0.00 27 1010.5
20260905173028 35 135 1.6 6.4 0.00 0.00 0.00 26 1010.5
20260905172525 35 171 1.6 8.0 0.00 0.00 0.00 26 1010.5
20260905172025 35 266 1.6 8.0 0.00 0.00 0.00 26 1010.4
20260905171525 35 190 1.6 6.4 0.00 0.00 0.00 27 1010.4
20260905171027 35 140 1.6 6.4 0.00 0.00 0.00 27 1010.4
20260905170522 35 238 0.0 6.4 0.00 0.00 0.00 28 1010.4
20260905170021 35 172 1.6 6.4 0.00 0.00 0.00 28 1010.4
20260905165519 35 176 1.6 4.8 0.00 0.00 0.00 29 1010.4
20260905165018 35 159 0.0 8.0 0.00 0.00 0.00 28 1010.4
20260905164517 35 157 1.6 8.0 0.00 0.00 0.00 29 1010.3
20260905164017 34 161 1.6 6.4 0.00 0.00 0.00 29 1010.3
20260905163515 34 158 1.6 6.4 0.00 0.00 0.00 30 1010.3
20260905163013 33 184 0.0 3.2 0.00 0.00 0.00 30 1010.3
20260905162511 33 153 0.0 3.2 0.00 0.00 0.00 32 1010.3
20260905162010 33 293 1.6 3.2 0.00 0.00 0.00 32 1010.3
20260905161509 33 188 0.0 3.2 0.00 0.00 0.00 32 1010.2
20260905161008 33 173 0.0 3.2 0.00 0.00 0.00 32 1010.2
20260905160506 32 250 0.0 3.2 0.00 0.00 0.00 34 1010.3
20260905160005 32 161 0.0 3.2 0.00 0.00 0.00 35 1010.3
20260905155504 31 153 0.0 0.0 0.00 0.00 0.00 36 1010.3
20260905155003 31 68 0.0 0.0 0.00 0.00 0.00 37 1010.2
20260905154502 30 68 0.0 0.0 0.00 0.00 0.00 37 1010.3
20260905154002 30 54 0.0 0.0 0.00 0.00 0.00 39 1010.2
20260905153601 30 329 0.0 0.0 0.00 0.00 0.00 39 1010.2
20260905153109 30 329 0.0 0.0 0.00 0.00 0.00 41 1010.1